Flag for U.S.A. Weather past 2 weeks in Vevay, Indiana, U.S.A.

Now
13 °F

Passing clouds.


Feels Like: 3 °F
Forecast: 10 / 33 °F
Wind: 7 mph from East

Location: Cincinnati / Northern Kentucky International Airport

Current Time: Feb 28, 2015 at 12:58:59 AM

Latest Report: Feb 27, 2015 at 11:52 PM


Visibility: 10 mi

Pressure: 30.69 "Hg

Humidity: 59%

Dew point: 1 °F

Location of VevayLocation

Historic Weather in Vevay — Graph

°F

Vevay temperature yesterday

Maximum temperature yesterday: 22 °F (at 4:52 PM)
Minimum temperature yesterday: 6 °F (at 6:52 AM)
Average temperature yesterday: 15 °F

Past Weeks' High & Low Weather Summary

 TemperatureHumidityPressure
High35 °F (Feb 25, 3:52 PM)96% (Feb 21, 1:52 PM)30.69 "Hg (Feb 21, 1:52 PM)
Low-9 °F (Feb 20, 3:52 AM)24% (Feb 15, 2:52 PM)29.78 "Hg (Feb 14, 10:52 AM)
Average17 °F64%30.21 "Hg
* Reported Feb 12 11:52 PM — Feb 27 11:52 PM, Vevay, Weather by CustomWeather, © 2015

Note: Actual official high and low records may vary slightly from our data, if they occured in-between our weather recording intervals... More about our weather records

Advertising

Vevay weather history for previous 24 hours

 ConditionsComfort  
Time TempWeatherWind HumidityBarometerVisibility
11:52 PM
Fri, Feb 27
13 °FPassing clouds.7 mph59%30.69 "Hg10 mi
10:52 PM16 °FPassing clouds.3 mph53%30.68 "Hg10 mi
9:52 PM15 °FMostly cloudy.6 mph56%30.68 "Hg10 mi
8:52 PM14 °FPassing clouds.6 mph56%30.68 "Hg10 mi
7:52 PM16 °FPassing clouds.7 mph51%30.66 "Hg10 mi
6:52 PM18 °FPassing clouds.8 mph49%30.64 "Hg10 mi
5:52 PM21 °FScattered clouds.6 mph43%30.62 "Hg10 mi
4:52 PM22 °FPassing clouds.No wind40%30.61 "Hg10 mi
3:52 PM21 °FPassing clouds.No wind40%30.61 "Hg10 mi
2:52 PM20 °FPassing clouds.3 mph41%30.60 "Hg10 mi
1:52 PM20 °FScattered clouds.6 mph43%30.61 "Hg10 mi
12:52 PM19 °FScattered clouds.9 mph47%30.63 "Hg10 mi
11:52 AM19 °FPassing clouds.10 mph47%30.63 "Hg10 mi
10:52 AM16 °FSunny.No wind51%30.61 "Hg10 mi
9:52 AM14 °FSunny.No wind56%30.60 "Hg10 mi
8:52 AM8 °FPassing clouds.No wind69%30.58 "Hg10 mi
7:52 AM7 °FScattered clouds.No wind73%30.55 "Hg9 mi
6:52 AM6 °FPassing clouds.6 mph79%30.52 "Hg9 mi
5:52 AM11 °FPassing clouds.8 mph73%30.48 "Hg8 mi
4:52 AM11 °FLight snow. Overcast.6 mph81%30.47 "Hg6 mi
3:52 AM13 °FMostly cloudy.8 mph74%30.43 "Hg9 mi
2:52 AM13 °FLight snow. Overcast.No wind74%30.41 "Hg7 mi
1:52 AM13 °FLight snow. Overcast.5 mph74%30.40 "Hg7 mi
12:52 AM11 °FOvercast.7 mph73%30.39 "Hg10 mi
Weather by CustomWeather, © 2015

See weather overviewHow to use our weather pages